Location: *
(34.8620°S, 39.3380°E)
Time: 02:47:33
(UTC+00:00)

Cosmos 1300 - Pass Details

Date: 03 December 2021
Orbit: 509 x 511 km, 82.5° (Epoch: 22 January)

Event Time Altitude Azimuth Distance (km) Brightness Sun altitude
Exits shadow 21:58:46 20° 161° (SSE) 1,246 5.3 -31.9°
Drops below altitude 10° 22:00:04 10° 165° (SSE) 1,760 6.3 -31.8°
Sets 22:02:14 0° 169° (SSE) 2,655 7.5 -31.7°
